North Bend, OR

1:24 AM PST on November 18, 2017 (GMT -0800)
North Bend Municipal

Weather History for KOTH - May, 2014

Change the Weather History Date:

Sunday, May 11, 2014

  Actual Average Record
Temperature  
Mean Temperature 53 °F 52 °F  
Max Temperature 61 °F 59 °F 73 °F (1988)
Min Temperature 45 °F 46 °F 29 °F (1920)
Degree Days  
Heating Degree Days 12 13  
Month to date heating degree days 113 147  
Since 1 July heating degree days 3746 4333  
Cooling Degree Days 0 0  
Month to date cooling degree days 2 0  
Year to date cooling degree days 10 0  
Growing Degree Days 2 (Base 50)    
Moisture  
Dew Point 49 °F    
Average Humidity 86    
Maximum Humidity 100    
Minimum Humidity 64    
Precipitation  
Precipitation 0.00 in 0.11 in 1.04 in (1937)
Month to date precipitation 1.53 1.29  
Year to date precipitation 21.15 32.07  
Sea Level Pressure  
Sea Level Pressure 30.29 in    
Wind  
Wind Speed 10 mph (NNE)    
Max Wind Speed 21 mph    
Max Gust Speed 27 mph    
Visibility 9 miles    
Events      
T = Trace of Precipitation, MM = Missing Value Source: NWS Daily Summary

Daily Weather History Graph

Daily Weather History Graph

Search for Another Location

Airport or City:

Trip Planner

Search our weather history database for the weather conditions in past years. The results will help you decide how hot, cold, wet, or windy it might be!

Date:

Astronomy

May. 11, 2014 Rise Set
Actual Time 5:56 AM PDT 8:30 PM PDT
Civil Twilight 5:24 AM PDT 9:03 PM PDT
Nautical Twilight 4:43 AM PDT 9:43 PM PDT
Astronomical Twilight 3:57 AM PDT 10:30 PM PDT
Moon 5:27 PM PDT (5/11) 4:11 AM PDT (5/11)
Length of Visible Light 15h 38m
Length of Day
14h 33m
Waxing Gibbous, 90% of the Moon is Illuminated
May 11
Waxing Gibbous
May 14
Full
May 21
Last Quarter
May 28
New
Jun 5
First Quarter

Hourly Weather History & Observations

Time (PDT) Temp. Windchill Dew Point Humidity Pressure Visibility Wind Dir Wind Speed Gust Speed Precip Events Conditions
12:15 AM 48.2 °F - 48.2 °F 100% 30.34 in 10.0 mi SE 4.6 mph - N/A   Scattered Clouds
12:35 AM 48.2 °F - 46.4 °F 93% 30.34 in 10.0 mi SE 5.8 mph - N/A   Scattered Clouds
12:55 AM 48.2 °F - 48.2 °F 100% 30.34 in 10.0 mi SE 5.8 mph - N/A   Mostly Cloudy
1:15 AM 48.2 °F - 46.4 °F 93% 30.35 in 10.0 mi SSE 5.8 mph - N/A   Scattered Clouds
1:35 AM 46.4 °F 43.5 °F 46.4 °F 100% 30.35 in 10.0 mi SSE 5.8 mph - N/A   Scattered Clouds
1:55 AM 46.4 °F 43.5 °F 46.4 °F 100% 30.34 in 10.0 mi SE 5.8 mph - N/A   Scattered Clouds
2:15 AM 46.4 °F 44.3 °F 46.4 °F 100% 30.34 in 10.0 mi SE 4.6 mph - N/A   Scattered Clouds
2:35 AM 46.4 °F 45.2 °F 46.4 °F 100% 30.34 in 10.0 mi SSE 3.5 mph - N/A   Mostly Cloudy
2:55 AM 46.4 °F 44.3 °F 46.4 °F 100% 30.33 in 10.0 mi SE 4.6 mph - N/A   Partly Cloudy
3:15 AM 44.6 °F 42.2 °F 44.6 °F 100% 30.33 in 10.0 mi SSE 4.6 mph - N/A   Partly Cloudy
3:35 AM 44.6 °F 43.1 °F 44.6 °F 100% 30.32 in 10.0 mi SSE 3.5 mph - N/A   Partly Cloudy
3:55 AM 44.6 °F 41.4 °F 44.6 °F 100% 30.33 in 2.5 mi SSE 5.8 mph - N/A   Mostly Cloudy
4:15 AM 44.6 °F 43.1 °F 44.6 °F 100% 30.33 in 2.5 mi SSE 3.5 mph - N/A   Overcast
4:35 AM 44.6 °F 41.4 °F 44.6 °F 100% 30.32 in 0.8 mi SSE 5.8 mph - N/A   Overcast
4:55 AM 44.6 °F 42.2 °F 44.6 °F 100% 30.32 in 1.0 mi SSE 4.6 mph - N/A   Overcast
5:15 AM 44.6 °F 43.1 °F 44.6 °F 100% 30.31 in 0.8 mi SSE 3.5 mph - N/A   Overcast
5:35 AM 44.6 °F 42.2 °F 44.6 °F 100% 30.31 in 0.5 mi SE 4.6 mph - N/A   Overcast
5:55 AM 44.6 °F 41.4 °F 44.6 °F 100% 30.31 in 0.2 mi SE 5.8 mph - N/A   Overcast
6:15 AM 44.6 °F 42.2 °F 44.6 °F 100% 30.32 in 0.2 mi SE 4.6 mph - N/A   Overcast
6:35 AM 44.6 °F 42.2 °F 44.6 °F 100% 30.31 in 0.2 mi SE 4.6 mph - N/A   Overcast
6:55 AM 44.6 °F 42.2 °F 44.6 °F 100% 30.32 in 0.2 mi SSE 4.6 mph - N/A   Overcast
7:15 AM 44.6 °F 42.2 °F 44.6 °F 100% 30.32 in 10.0 mi ESE 4.6 mph - N/A   Scattered Clouds
7:35 AM 46.4 °F - 46.4 °F 100% 30.32 in 10.0 mi Calm Calm - N/A   Scattered Clouds
7:55 AM 46.4 °F - 46.4 °F 100% 30.33 in 10.0 mi Calm Calm - N/A   Scattered Clouds
8:15 AM 48.2 °F - 48.2 °F 100% 30.33 in 10.0 mi Calm Calm - N/A   Clear
8:35 AM 50.0 °F - 48.2 °F 94% 30.33 in 10.0 mi SE 3.5 mph - N/A   Clear
8:55 AM 51.8 °F - 50.0 °F 94% 30.33 in 10.0 mi Calm Calm - N/A   Clear
9:15 AM 53.6 °F - 48.2 °F 82% 30.32 in 10.0 mi Calm Calm - N/A   Clear
9:35 AM 53.6 °F - 48.2 °F 82% 30.32 in 10.0 mi Calm Calm - N/A   Clear
9:55 AM 53.6 °F - 48.2 °F 82% 30.32 in 10.0 mi WNW 3.5 mph - N/A   Clear
10:15 AM 55.4 °F - 51.8 °F 88% 30.31 in 10.0 mi Calm Calm - N/A   Clear
10:35 AM 57.2 °F - 50.0 °F 77% 30.31 in 10.0 mi Calm Calm - N/A   Clear
10:55 AM 57.2 °F - 50.0 °F 77% 30.31 in 10.0 mi North 5.8 mph - N/A   Clear
11:15 AM 59.0 °F - 50.0 °F 72% 30.30 in 10.0 mi North 9.2 mph - N/A   Clear
11:35 AM 59.0 °F - 51.8 °F 77% 30.30 in 10.0 mi NNW 10.4 mph - N/A   Clear
11:55 AM 60.8 °F - 51.8 °F 72% 30.29 in 10.0 mi NNW 12.7 mph - N/A   Clear
12:15 PM 60.8 °F - 51.8 °F 72% 30.29 in 10.0 mi NNW 15.0 mph - N/A   Clear
12:35 PM 60.8 °F - 51.8 °F 72% 30.28 in 10.0 mi NNW 16.1 mph - N/A   Clear
12:55 PM 60.8 °F - 51.8 °F 72% 30.28 in 10.0 mi NNW 15.0 mph - N/A   Clear
1:15 PM 60.8 °F - 51.8 °F 72% 30.27 in 10.0 mi NNW 19.6 mph - N/A   Clear
1:35 PM 60.8 °F - 51.8 °F 72% 30.26 in 10.0 mi North 18.4 mph - N/A   Clear
1:55 PM 60.8 °F - 51.8 °F 72% 30.27 in 10.0 mi North 19.6 mph 23.0 mph N/A   Clear
2:15 PM 60.8 °F - 51.8 °F 72% 30.27 in 10.0 mi North 17.3 mph - N/A   Clear
2:35 PM 60.8 °F - 50.0 °F 68% 30.26 in 10.0 mi North 19.6 mph - N/A   Clear
2:55 PM 60.8 °F - 48.2 °F 63% 30.26 in 10.0 mi North 20.7 mph 26.5 mph N/A   Clear
3:15 PM 60.8 °F - 48.2 °F 63% 30.26 in 10.0 mi North 18.4 mph - N/A   Clear
3:35 PM 60.8 °F - 48.2 °F 63% 30.26 in 10.0 mi North 25.3 mph - N/A   Clear
3:55 PM 60.8 °F - 48.2 °F 63% 30.25 in 10.0 mi North 19.6 mph 26.5 mph N/A   Clear
4:15 PM 60.8 °F - 48.2 °F 63% 30.25 in 10.0 mi North 20.7 mph 26.5 mph N/A   Clear
4:35 PM 60.8 °F - 48.2 °F 63% 30.24 in 10.0 mi North 19.6 mph 25.3 mph N/A   Clear
4:55 PM 60.8 °F - 48.2 °F 63% 30.24 in 10.0 mi North 18.4 mph 21.9 mph N/A   Clear
5:15 PM 60.8 °F - 48.2 °F 63% 30.24 in 10.0 mi North 19.6 mph 24.2 mph N/A   Clear
5:35 PM 59.0 °F - 48.2 °F 67% 30.24 in 10.0 mi North 20.7 mph 26.5 mph N/A   Clear
5:55 PM 57.2 °F - 50.0 °F 77% 30.24 in 10.0 mi North 19.6 mph 25.3 mph N/A   Clear
6:15 PM 57.2 °F - 50.0 °F 77% 30.24 in 10.0 mi North 17.3 mph 28.8 mph N/A   Clear
6:35 PM 57.2 °F - 50.0 °F 77% 30.24 in 10.0 mi North 20.7 mph 27.6 mph N/A   Clear
6:55 PM 57.2 °F - 50.0 °F 77% 30.23 in 10.0 mi North 18.4 mph - N/A   Clear
7:15 PM 57.2 °F - 51.8 °F 82% 30.22 in 10.0 mi North 16.1 mph - N/A   Clear
7:35 PM 55.4 °F - 51.8 °F 88% 30.23 in 10.0 mi North 16.1 mph 21.9 mph N/A   Clear
7:55 PM 55.4 °F - 51.8 °F 88% 30.23 in 10.0 mi North 15.0 mph - N/A   Clear
8:15 PM 55.4 °F - 51.8 °F 88% 30.23 in 10.0 mi North 16.1 mph - N/A   Clear
8:35 PM 55.4 °F - 51.8 °F 88% 30.23 in 10.0 mi North 15.0 mph - N/A   Clear
9:15 PM 53.6 °F - 51.8 °F 94% 30.25 in 10.0 mi North 10.4 mph - N/A   Clear
9:35 PM 53.6 °F - 51.8 °F 94% 30.25 in 10.0 mi North 10.4 mph - N/A   Clear
9:55 PM 53.6 °F - 51.8 °F 94% 30.25 in 10.0 mi North 6.9 mph - N/A   Clear
10:15 PM 53.6 °F - 51.8 °F 94% 30.26 in 10.0 mi NNE 5.8 mph - N/A   Clear
10:35 PM 53.6 °F - 50.0 °F 88% 30.26 in 10.0 mi North 3.5 mph - N/A   Clear
10:55 PM 51.8 °F - 50.0 °F 94% 30.26 in 10.0 mi North 3.5 mph - N/A   Clear
11:15 PM 51.8 °F - 50.0 °F 94% 30.27 in 10.0 mi Calm Calm - N/A   Clear
11:35 PM 51.8 °F - 50.0 °F 94% 30.28 in 10.0 mi Calm Calm - N/A   Clear
11:55 PM 48.2 °F - 48.2 °F 100% 30.28 in 10.0 mi ESE 3.5 mph - N/A   Clear